Home > Weather > Atascadero > Past weeks

Flag for U.S.A. Weather for the Past 2 Weeks in Atascadero, California, U.S.A.

Now
68 °F

Sunny.


Feels Like: 68 °F
Forecast: 48 / 73 °F
Wind: 8 mph from East

Location: Paso Robles Municipal Airport

Current Time: Feb 12, 2016 at 5:38:58 PM

Latest Report: Feb 12, 2016 at 4:53 PM


Visibility: 10 mi

Pressure: 30.11 "Hg

Humidity: 65%

Dew point: 56 °F

Location of AtascaderoLocation

Historic Weather in Atascadero — Graph

°F

Atascadero Temperature Yesterday

Maximum temperature yesterday: 76 °F (at 3:53 PM)
Minimum temperature yesterday: 40 °F (at 4:53 AM)
Average temperature yesterday: 54 °F

High & Low Weather Summary for the Past Weeks

 TemperatureHumidityPressure
High77 °F (Feb 9, 3:53 PM)100% (Jan 29, 10:53 PM)30.44 "Hg (Jan 29, 10:53 PM)
Low30 °F (Feb 2, 3:53 AM)35% (Feb 10, 2:53 PM)29.71 "Hg (Jan 31, 7:53 AM)
Average49 °F75%30.20 "Hg
* Reported Jan 28 3:53 PM — Feb 12 3:53 PM, Atascadero, Weather by CustomWeather, © 2016

Note: Actual official high and low records may vary slightly from our data, if they occured in-between our weather recording intervals... More about our weather records

Advertising

Atascadero Weather History for the Previous 24 Hours

 ConditionsComfort  
Time TempWeatherWind HumidityBarometerVisibility
3:53 PM
Fri, Feb 12
74 °FSunny.6 mph48%30.10 "Hg10 mi
2:53 PM75 °FSunny.3 mph50%30.09 "Hg10 mi
1:53 PM71 °FSunny.No wind53%30.11 "Hg10 mi
12:53 PM69 °FSunny.3 mph49%30.14 "Hg10 mi
11:53 AM67 °FSunny.No wind57%30.17 "Hg10 mi
10:53 AM59 °FSunny.3 mph72%30.20 "Hg10 mi
9:53 AM50 °FSunny.No wind86%30.22 "Hg10 mi
8:53 AM45 °FFog.No wind93%30.22 "Hg6 mi
7:53 AM42 °FFog.No wind92%30.21 "Hg5 mi
6:53 AM40 °FFog.5 mph97%30.19 "Hg4 mi
5:53 AM42 °FFog.3 mph92%30.18 "Hg6 mi
4:53 AM41 °FFog.No wind96%30.18 "Hg6 mi
3:53 AM42 °FFog.3 mph96%30.17 "Hg6 mi
2:53 AM44 °FClear.No wind93%30.17 "Hg8 mi
1:53 AM44 °FFog.3 mph93%30.18 "Hg6 mi
12:53 AM46 °FClear.3 mph93%30.17 "Hg8 mi
11:53 PM
Thu, Feb 11
47 °FClear.5 mph90%30.18 "Hg10 mi
10:53 PM48 °FClear.5 mph89%30.17 "Hg10 mi
9:53 PM54 °FClear.No wind80%30.16 "Hg10 mi
8:53 PM57 °FClear.No wind72%30.16 "Hg10 mi
7:53 PM54 °FClear.5 mph83%30.14 "Hg10 mi
6:53 PM60 °FClear.3 mph72%30.12 "Hg10 mi
5:53 PM69 °FClear.No wind55%30.11 "Hg10 mi
Weather by CustomWeather, © 2016

See weather overviewHow to use our weather pages